Vorticity
1 -1 -0 2 1 -1 1 2 3 2 3 5 9 9 12 7 4 5 5 4 3 3 3 4 3 3 2 3 3 3 3 3 1 5 5 6 7 7 6 6 6 7 7 8 9 9 8 8 9
1 1 -1 1 1 1 -0 0 2 2 3 1 9 12 11 7 5 7 5 4 3 3 4 3 3 2 3 4 2 2 1 2 6 8 5 5 7 8 9 8 8 7 7 6 5 5 6 5 5
0 2 1 -1 -0 0 -0 1 2 2 3 3 13 9 14 7 6 7 6 4 4 4 4 3 3 3 3 3 2 3 2 4 5 1 5 6 7 8 8 8 6 6 6 5 5 5 4 4 4
1 1 3 -1 1 0 -2 0 1 -1 4 8 12 10 12 5 7 6 5 4 4 3 3 3 3 3 3 2 3 2 2 3 -1 5 9 9 8 7 7 6 5 5 4 4 3 3 3 3 4
-0 0 2 0 3 0 2 1 0 1 4 10 10 14 11 6 6 6 5 4 3 2 2 2 3 3 3 3 3 4 1 2 -5 5 10 8 7 6 5 6 6 5 4 3 3 2 2 3 4
-0 1 1 -2 2 2 3 4 6 4 3 14 8 12 8 7 7 5 4 4 3 2 2 2 3 3 2 1 4 3 1 3 -3 8 8 7 5 5 5 6 5 5 4 4 3 2 2 2 3
2 1 0 0 2 0 -0 4 1 -2 5 15 7 12 8 8 6 5 5 4 3 2 2 3 3 2 3 4 3 4 1 0 2 12 10 6 4 4 4 6 7 7 4 3 3 3 3 5 3
7 10 3 4 3 1 5 4 2 4 14 12 9 11 7 7 6 6 4 3 2 2 2 2 2 3 3 3 4 4 5 -4 14 9 3 2 4 8 10 11 10 8 6 6 6 5 5 5 4
3 5 10 3 2 3 2 1 2 8 16 6 10 8 6 5 6 4 5 2 2 2 2 3 3 3 3 4 3 3 -3 11 8 4 1 4 9 13 11 14 18 18 9 7 8 8 8 5 8
4 2 6 6 1 1 3 3 2 7 15 4 9 7 7 6 6 7 2 3 2 2 2 2 2 3 4 4 6 -0 3 9 5 2 1 10 14 7 11 12 16 25 17 12 14 14 8 6 2
7 4 5 5 6 4 0 1 2 7 11 4 10 6 6 6 5 7 3 3 2 2 2 2 3 3 4 4 7 -1 3 8 7 3 4 14 7 8 15 17 28 35 24 19 15 8 2 8 39
5 5 2 6 6 6 4 2 8 8 8 4 10 6 6 5 3 0 3 3 2 2 3 3 2 2 6 8 1 3 3 9 5 3 10 13 3 12 14 14 40 36 24 14 8 7 38 15 8
3 4 5 4 7 4 5 6 11 9 7 4 10 5 6 5 4 4 4 3 3 2 2 2 2 4 5 6 -0 1 9 10 4 4 13 9 7 10 13 16 14 11 10 10 17 20 12 10 9
3 3 6 8 4 6 4 7 10 8 5 4 10 5 5 4 4 4 4 3 3 2 2 2 3 5 7 1 2 0 7 5 0 5 10 10 7 7 8 11 9 8 12 15 9 6 5 6 6
2 5 6 5 6 4 6 7 7 7 4 4 9 6 5 4 4 4 2 3 3 2 2 3 3 5 6 1 0 -1 3 4 4 3 4 13 5 4 6 9 9 7 3 5 4 5 3 4 3
2 6 6 6 5 4 6 7 4 6 4 5 8 7 4 4 4 3 2 2 2 3 3 3 4 4 6 2 3 0 -0 5 5 8 5 16 6 5 7 4 5 5 3 2 3 3 3 2 3
6 7 4 7 5 5 4 7 4 4 2 5 9 6 5 4 4 3 3 3 3 3 3 3 3 2 4 6 2 1 1 5 9 5 7 25 10 4 3 5 5 3 3 3 4 4 5 7 5
0 1 7 9 7 7 4 5 5 5 4 5 8 6 4 3 2 3 3 3 3 3 3 3 3 3 4 6 3 0 3 6 12 7 7 9 20 3 6 1 3 4 1 3 4 2 3 3 3
14 12 8 11 7 6 6 4 5 4 3 6 7 6 6 5 4 4 4 4 3 3 4 4 3 5 8 4 4 -0 2 10 10 3 3 6 28 5 2 -1 2 3 0 -1 -0 5 7 6 4
6 9 8 9 9 7 5 5 4 4 3 6 7 6 5 5 4 4 4 3 3 5 3 5 4 4 8 4 2 2 7 12 8 6 5 9 13 15 5 5 5 4 6 5 5 7 5 5 6
8 6 8 7 10 9 7 6 5 4 3 6 7 7 7 6 6 5 5 4 4 5 5 6 4 8 5 2 -1 4 14 9 7 3 8 14 13 13 12 8 5 4 5 6 6 7 8 9 10
8 6 7 7 8 7 7 7 5 5 4 6 8 8 6 6 5 5 6 6 6 7 5 5 8 7 3 -0 3 8 14 5 5 7 11 14 15 15 10 7 5 5 7 6 5 6 8 8 7
8 8 7 7 6 7 8 7 6 6 5 6 8 7 7 7 7 7 7 7 6 6 6 8 6 2 1 2 5 16 4 6 8 11 15 15 15 12 9 6 5 4 4 6 6 5 5 7 9
9 8 8 8 8 7 6 6 5 7 8 7 8 9 8 8 8 7 7 6 6 8 8 3 2 3 3 7 16 5 7 9 10 15 15 13 11 9 6 5 6 5 5 3 4 5 5 7 10
7 9 9 9 9 6 6 7 4 8 10 8 8 8 9 8 7 7 7 8 6 4 3 4 4 6 12 11 4 9 8 9 13 17 14 9 7 5 6 6 4 4 4 5 5 5 6 9 9
8 10 7 11 12 8 8 11 11 8 7 8 9 9 9 9 8 7 5 3 3 5 5 5 8 11 9 2 7 9 6 11 16 15 11 7 5 7 5 4 4 4 5 4 5 7 8 9 6
8 7 9 12 11 10 10 13 11 10 11 9 8 7 6 5 4 4 4 5 5 5 7 7 9 5 3 6 8 7 8 14 15 10 9 6 6 5 4 3 4 4 4 5 5 7 7 8 7
8 8 6 8 9 9 10 11 8 6 5 4 4 4 4 4 4 4 5 6 6 7 9 8 7 8 9 11 10 7 12 15 14 10 8 6 4 4 4 4 4 5 5 6 7 9 8 7 5
5 6 7 7 5 4 5 5 4 4 5 5 4 3 4 5 6 7 7 7 8 7 5 5 9 11 11 10 7 12 15 15 10 7 7 6 5 5 5 4 4 6 6 7 9 7 5 8 11
4 4 4 3 2 2 -0 1 6 7 6 5 6 6 7 7 7 8 8 7 7 7 6 7 10 9 8 6 10 14 9 8 8 8 6 5 5 6 6 6 6 7 9 8 6 7 9 10 15
Height
5874 5877 5879 5883 5889 5891 5893 5896 5896 5896 5897 5897 5897 5897 5896 5896 5897 5899 5897 5896 5896 5896 5896 5895 5894 5894 5893 5892 5891 5889 5888 5886 5884 5882 5880 5878 5875 5873 5870 5869 5866 5865 5863 5862 5860 5859 5857 5856 5855
5869 5872 5876 5878 5883 5888 5891 5892 5893 5894 5895 5894 5895 5895 5894 5894 5895 5895 5896 5896 5895 5895 5895 5895 5894 5893 5892 5891 5890 5888 5886 5885 5882 5880 5878 5875 5872 5869 5867 5865 5863 5861 5859 5857 5856 5854 5853 5852 5850
5863 5867 5870 5873 5878 5885 5888 5889 5891 5892 5893 5892 5893 5893 5892 5893 5893 5894 5895 5895 5895 5895 5895 5894 5894 5892 5891 5890 5888 5887 5885 5883 5880 5878 5875 5872 5869 5867 5864 5862 5860 5858 5856 5854 5852 5850 5849 5847 5846
5857 5861 5864 5867 5876 5880 5884 5886 5887 5889 5890 5890 5890 5890 5891 5891 5892 5893 5893 5894 5894 5894 5894 5894 5893 5892 5890 5889 5887 5885 5883 5881 5878 5875 5872 5869 5866 5864 5861 5859 5857 5855 5853 5850 5848 5846 5845 5843 5841
5848 5854 5856 5863 5872 5877 5879 5883 5884 5886 5888 5887 5887 5887 5888 5889 5890 5890 5891 5892 5892 5892 5892 5892 5892 5890 5889 5888 5886 5884 5881 5879 5876 5873 5869 5866 5863 5861 5858 5856 5853 5851 5849 5846 5844 5842 5840 5838 5836
5841 5846 5851 5861 5869 5872 5875 5879 5881 5883 5884 5884 5885 5884 5885 5887 5887 5888 5890 5890 5890 5891 5891 5891 5890 5889 5887 5886 5884 5882 5879 5877 5873 5869 5866 5862 5860 5857 5855 5852 5849 5846 5843 5841 5839 5837 5835 5833 5831
5834 5840 5848 5858 5863 5867 5871 5874 5877 5879 5880 5881 5882 5882 5883 5884 5885 5887 5888 5889 5889 5889 5889 5889 5888 5887 5886 5884 5882 5880 5877 5873 5870 5865 5862 5859 5856 5853 5849 5845 5841 5838 5836 5834 5832 5830 5829 5827 5825
5826 5834 5840 5849 5857 5862 5867 5870 5873 5875 5876 5877 5878 5879 5880 5881 5883 5885 5886 5887 5887 5887 5887 5886 5886 5884 5883 5881 5879 5877 5874 5870 5865 5861 5858 5854 5850 5846 5841 5836 5833 5830 5828 5826 5824 5823 5822 5821 5818
5819 5826 5833 5844 5852 5858 5862 5866 5869 5871 5872 5873 5874 5875 5877 5878 5881 5882 5884 5884 5885 5885 5885 5884 5883 5882 5880 5878 5876 5874 5870 5866 5861 5857 5853 5848 5843 5839 5833 5828 5823 5819 5818 5817 5816 5816 5816 5814 5812
5809 5818 5828 5839 5847 5853 5857 5861 5865 5867 5868 5869 5871 5872 5874 5876 5878 5880 5880 5881 5882 5882 5882 5881 5880 5879 5877 5875 5873 5870 5866 5862 5857 5853 5848 5843 5837 5832 5826 5819 5813 5808 5807 5808 5810 5810 5809 5807 5805
5803 5812 5823 5833 5840 5847 5852 5856 5860 5862 5864 5866 5867 5869 5871 5873 5875 5876 5877 5878 5879 5879 5878 5878 5877 5876 5874 5872 5870 5866 5862 5858 5853 5849 5843 5838 5832 5826 5819 5812 5804 5798 5799 5802 5804 5804 5803 5801 5799
5796 5804 5816 5827 5834 5841 5846 5851 5854 5857 5861 5862 5864 5866 5868 5869 5871 5872 5874 5875 5875 5875 5874 5874 5873 5872 5871 5868 5866 5862 5858 5854 5850 5845 5839 5833 5829 5822 5816 5808 5800 5795 5796 5798 5800 5799 5798 5796 5795
5787 5798 5810 5820 5828 5835 5841 5846 5849 5852 5855 5858 5860 5862 5864 5865 5867 5868 5870 5871 5872 5871 5871 5871 5870 5868 5866 5864 5862 5859 5855 5851 5846 5841 5836 5830 5825 5820 5814 5808 5802 5798 5797 5797 5796 5796 5795 5794 5793
5780 5791 5803 5814 5823 5830 5836 5840 5843 5847 5851 5854 5857 5859 5860 5862 5863 5865 5866 5867 5868 5868 5868 5867 5866 5864 5862 5860 5857 5854 5850 5846 5842 5838 5833 5828 5823 5818 5813 5809 5804 5800 5797 5795 5795 5794 5793 5791 5791
5775 5787 5797 5808 5816 5824 5830 5834 5837 5842 5846 5849 5853 5855 5857 5858 5859 5861 5862 5864 5864 5864 5864 5863 5861 5860 5858 5855 5853 5850 5845 5841 5837 5833 5829 5825 5821 5816 5812 5808 5805 5801 5798 5795 5793 5792 5791 5789 5788
5769 5781 5792 5802 5810 5817 5824 5829 5834 5838 5841 5845 5849 5851 5853 5854 5856 5857 5858 5859 5859 5859 5859 5858 5856 5854 5852 5849 5847 5843 5840 5835 5831 5828 5824 5820 5816 5813 5810 5807 5804 5800 5797 5794 5791 5789 5788 5786 5784
5764 5776 5785 5796 5805 5812 5818 5823 5828 5833 5837 5840 5844 5846 5848 5850 5852 5853 5853 5854 5854 5854 5854 5852 5850 5848 5846 5843 5840 5837 5833 5828 5825 5822 5818 5814 5811 5809 5806 5803 5801 5797 5795 5792 5789 5786 5784 5783 5781
5762 5771 5781 5792 5801 5807 5813 5820 5825 5829 5833 5835 5839 5842 5844 5845 5848 5848 5849 5849 5848 5848 5847 5846 5844 5842 5839 5836 5833 5830 5826 5822 5818 5815 5811 5808 5805 5803 5800 5798 5796 5793 5791 5788 5785 5782 5779 5777 5775
5760 5773 5782 5792 5798 5805 5810 5816 5821 5824 5828 5831 5834 5836 5839 5841 5842 5843 5843 5843 5842 5842 5841 5839 5837 5835 5832 5829 5826 5822 5818 5814 5811 5808 5804 5800 5798 5796 5794 5792 5789 5787 5785 5782 5780 5777 5774 5771 5768
5756 5769 5779 5788 5796 5802 5807 5812 5815 5819 5823 5826 5830 5832 5835 5836 5837 5837 5837 5837 5836 5835 5834 5832 5830 5827 5824 5821 5817 5814 5810 5807 5804 5800 5796 5792 5790 5788 5786 5784 5782 5780 5777 5775 5772 5769 5767 5764 5761
5755 5765 5775 5785 5792 5798 5802 5806 5810 5815 5819 5822 5825 5828 5830 5831 5831 5832 5832 5831 5830 5828 5826 5824 5822 5819 5817 5813 5810 5806 5803 5799 5795 5791 5788 5784 5781 5778 5777 5775 5773 5771 5769 5767 5765 5762 5759 5757 5754
5756 5765 5773 5781 5788 5794 5798 5803 5806 5811 5815 5818 5821 5823 5824 5825 5826 5826 5826 5824 5823 5821 5819 5817 5814 5812 5808 5805 5801 5798 5794 5790 5786 5782 5778 5775 5772 5770 5768 5766 5764 5763 5761 5759 5756 5754 5751 5748 5745
5757 5765 5773 5780 5786 5792 5796 5799 5804 5808 5811 5814 5815 5816 5818 5819 5820 5819 5818 5817 5815 5813 5811 5809 5806 5803 5800 5796 5792 5788 5784 5780 5776 5773 5769 5766 5763 5762 5760 5757 5755 5753 5752 5750 5747 5744 5741 5738 5735
5757 5765 5772 5779 5784 5789 5794 5797 5804 5806 5809 5809 5810 5811 5812 5812 5812 5811 5810 5808 5806 5804 5802 5800 5797 5794 5791 5787 5783 5779 5775 5772 5767 5764 5760 5757 5755 5753 5751 5749 5747 5744 5743 5740 5737 5734 5731 5727 5724
5759 5765 5772 5778 5782 5787 5792 5794 5803 5803 5804 5804 5804 5805 5806 5805 5805 5803 5802 5800 5797 5795 5793 5790 5788 5784 5781 5777 5773 5769 5765 5761 5757 5754 5751 5749 5746 5745 5743 5740 5738 5735 5733 5730 5727 5723 5719 5716 5712
5760 5766 5772 5778 5782 5787 5790 5792 5798 5798 5798 5798 5799 5799 5799 5798 5797 5795 5793 5791 5789 5786 5784 5781 5778 5775 5771 5767 5763 5759 5755 5751 5748 5744 5742 5740 5738 5736 5733 5731 5728 5724 5721 5718 5715 5711 5707 5703 5699
5761 5767 5773 5777 5780 5784 5787 5791 5793 5792 5793 5793 5794 5793 5792 5790 5788 5786 5784 5782 5779 5777 5774 5771 5767 5764 5760 5757 5753 5749 5745 5741 5738 5735 5733 5730 5728 5725 5723 5719 5716 5712 5709 5706 5703 5698 5694 5690 5685
5762 5768 5773 5776 5779 5782 5785 5786 5787 5788 5788 5788 5787 5785 5783 5781 5779 5777 5775 5772 5769 5766 5763 5760 5757 5753 5749 5745 5741 5738 5734 5730 5727 5724 5722 5719 5717 5714 5711 5707 5704 5701 5697 5693 5689 5685 5681 5676 5671
5763 5767 5771 5774 5777 5778 5781 5782 5781 5781 5781 5779 5778 5776 5773 5771 5769 5767 5765 5762 5759 5756 5753 5750 5746 5742 5738 5734 5730 5726 5722 5719 5716 5713 5710 5708 5705 5703 5700 5696 5692 5688 5683 5679 5675 5670 5666 5661 5656
5761 5765 5768 5770 5773 5773 5774 5776 5775 5774 5773 5770 5767 5765 5763 5761 5759 5758 5755 5753 5750 5746 5743 5739 5734 5730 5726 5722 5718 5715 5712 5708 5705 5702 5700 5697 5694 5691 5687 5683 5678 5674 5669 5664 5659 5655 5650 5645 5641